Temp
-14 -14 -13 -14 -14 -14 -15 -14 -13 -13 -13 -12 -12 -12 -12 -11 -11 -11 -10 -10 -10 -10 -10 -9 -9 -9 -9 -10 -9 -9 -9 -9 -9 -9 -9 -10 -10 -10 -10 -10 -10 -10 -10 -10 -10
-14 -14 -14 -14 -15 -15 -14 -13 -13 -13 -13 -13 -12 -12 -12 -11 -11 -11 -10 -10 -10 -10 -10 -10 -10 -10 -9 -9 -9 -9 -10 -9 -9 -10 -10 -10 -10 -10 -10 -10 -10 -10 -10 -10 -10
-14 -14 -14 -14 -14 -14 -14 -13 -13 -13 -13 -12 -12 -12 -12 -12 -11 -11 -11 -10 -10 -10 -10 -10 -10 -10 -10 -10 -10 -9 -10 -10 -10 -10 -10 -10 -10 -10 -10 -10 -10 -10 -10 -10 -10
-14 -14 -14 -14 -13 -13 -14 -13 -14 -13 -13 -13 -13 -12 -12 -12 -11 -11 -11 -11 -11 -10 -10 -10 -10 -10 -10 -10 -10 -10 -10 -10 -10 -10 -10 -10 -10 -10 -10 -10 -10 -10 -10 -10 -10
-15 -15 -15 -14 -14 -13 -14 -13 -13 -13 -13 -13 -12 -12 -12 -12 -12 -11 -11 -11 -11 -11 -10 -10 -10 -10 -10 -9 -10 -10 -10 -10 -10 -10 -10 -10 -10 -10 -10 -10 -10 -10 -10 -10 -10
-15 -15 -15 -15 -14 -14 -14 -13 -13 -13 -13 -13 -13 -12 -12 -12 -12 -12 -11 -11 -11 -11 -11 -10 -10 -10 -10 -10 -10 -10 -10 -10 -10 -10 -10 -10 -10 -10 -11 -10 -10 -10 -10 -10 -10
-15 -15 -16 -15 -15 -14 -14 -14 -14 -13 -13 -13 -13 -13 -12 -12 -12 -12 -12 -12 -11 -11 -11 -11 -11 -11 -11 -10 -10 -10 -10 -10 -10 -10 -10 -10 -10 -10 -11 -10 -10 -10 -10 -10 -10
-15 -15 -15 -15 -15 -15 -14 -14 -14 -13 -13 -13 -13 -12 -12 -12 -12 -12 -12 -12 -12 -11 -11 -11 -11 -11 -11 -11 -11 -10 -10 -10 -11 -10 -10 -10 -10 -10 -11 -10 -10 -10 -10 -10 -10
-16 -15 -15 -16 -16 -15 -15 -14 -14 -14 -13 -13 -13 -13 -12 -12 -12 -12 -12 -12 -12 -12 -11 -11 -11 -11 -11 -11 -11 -11 -10 -10 -10 -10 -10 -10 -10 -11 -10 -10 -10 -10 -10 -10 -10
-16 -16 -15 -16 -16 -16 -15 -15 -14 -14 -13 -13 -13 -13 -12 -12 -12 -12 -12 -12 -12 -12 -11 -11 -11 -11 -11 -11 -11 -11 -11 -10 -10 -10 -10 -10 -10 -10 -11 -10 -10 -10 -10 -10 -10
-16 -16 -16 -15 -16 -15 -15 -15 -14 -14 -13 -13 -13 -13 -13 -13 -12 -12 -12 -12 -12 -12 -11 -11 -11 -11 -12 -11 -11 -11 -10 -10 -10 -10 -11 -11 -10 -10 -10 -11 -11 -10 -10 -11 -11
-16 -16 -16 -16 -16 -16 -15 -15 -15 -15 -14 -13 -13 -13 -13 -13 -13 -12 -12 -12 -12 -12 -12 -11 -11 -11 -11 -11 -11 -11 -11 -11 -11 -11 -10 -10 -10 -10 -10 -10 -11 -10 -10 -11 -11
-16 -16 -16 -16 -16 -16 -17 -16 -15 -15 -15 -14 -14 -13 -13 -13 -13 -13 -13 -12 -12 -12 -12 -11 -11 -11 -11 -11 -11 -11 -11 -11 -11 -11 -10 -10 -10 -10 -10 -10 -11 -11 -11 -11 -11
-17 -16 -16 -16 -16 -16 -17 -16 -16 -16 -15 -14 -14 -14 -13 -13 -13 -13 -13 -12 -12 -12 -12 -12 -12 -11 -11 -11 -11 -11 -11 -11 -11 -11 -10 -10 -9 -10 -10 -10 -11 -11 -11 -11 -11
-18 -17 -16 -16 -16 -16 -17 -17 -16 -17 -16 -16 -15 -14 -14 -14 -13 -13 -13 -13 -12 -13 -12 -12 -12 -12 -12 -12 -12 -11 -11 -11 -11 -11 -10 -10 -10 -9 -10 -10 -11 -11 -11 -11 -11
-18 -18 -17 -16 -16 -16 -16 -17 -17 -17 -16 -16 -15 -14 -14 -14 -14 -14 -13 -13 -13 -13 -12 -12 -12 -12 -12 -12 -12 -12 -12 -12 -12 -11 -10 -10 -10 -9 -10 -10 -11 -11 -11 -11 -11
-18 -18 -18 -17 -17 -16 -16 -16 -16 -16 -16 -16 -15 -15 -15 -15 -15 -15 -14 -14 -14 -14 -13 -13 -13 -13 -13 -13 -12 -12 -12 -13 -12 -12 -11 -11 -11 -10 -10 -10 -10 -11 -11 -11 -11
-18 -18 -18 -18 -17 -17 -17 -17 -17 -17 -16 -16 -16 -16 -16 -15 -15 -15 -15 -15 -15 -14 -14 -14 -14 -13 -13 -13 -14 -14 -14 -13 -12 -12 -11 -11 -10 -10 -10 -11 -11 -11 -11 -11 -11
-19 -19 -18 -18 -18 -18 -17 -17 -17 -17 -17 -16 -16 -16 -16 -16 -16 -16 -16 -15 -15 -15 -15 -15 -14 -14 -14 -14 -14 -14 -13 -14 -14 -13 -12 -11 -10 -10 -11 -11 -11 -12 -11 -11 -11
-19 -19 -18 -19 -19 -19 -18 -18 -18 -17 -17 -17 -17 -17 -16 -16 -16 -16 -16 -16 -16 -16 -16 -15 -15 -14 -15 -15 -15 -14 -15 -15 -15 -14 -14 -12 -11 -10 -11 -12 -12 -13 -12 -12 -13
-20 -20 -19 -19 -19 -19 -18 -18 -18 -18 -18 -17 -17 -17 -16 -17 -17 -16 -16 -16 -16 -16 -16 -16 -16 -15 -15 -15 -15 -15 -15 -15 -15 -15 -15 -13 -12 -11 -12 -12 -12 -12 -13 -13 -13
-21 -21 -20 -20 -20 -19 -18 -18 -18 -18 -18 -18 -17 -17 -17 -17 -17 -17 -17 -17 -17 -17 -16 -17 -17 -16 -16 -16 -15 -15 -15 -16 -16 -15 -16 -15 -12 -12 -13 -14 -13 -13 -14 -14 -14
-22 -21 -21 -20 -20 -19 -18 -19 -19 -19 -19 -19 -18 -18 -18 -18 -18 -17 -17 -17 -17 -17 -17 -17 -17 -16 -16 -16 -16 -16 -16 -16 -16 -16 -15 -16 -12 -14 -14 -14 -14 -15 -15 -15 -15
-23 -22 -22 -21 -20 -20 -20 -19 -19 -19 -19 -19 -19 -19 -19 -19 -19 -19 -18 -18 -18 -17 -17 -17 -17 -17 -17 -17 -17 -17 -17 -17 -17 -16 -15 -15 -14 -13 -14 -14 -15 -15 -15 -15 -15
-24 -23 -23 -22 -22 -22 -21 -21 -20 -20 -20 -20 -19 -20 -20 -19 -19 -19 -19 -19 -20 -19 -18 -18 -17 -17 -17 -18 -17 -17 -17 -17 -17 -17 -17 -15 -17 -13 -15 -15 -15 -15 -15 -15 -15
-24 -24 -24 -23 -23 -23 -22 -21 -22 -22 -21 -21 -21 -21 -21 -19 -20 -19 -19 -19 -19 -20 -20 -20 -20 -20 -20 -20 -20 -19 -18 -18 -19 -18 -19 -18 -17 -16 -16 -16 -16 -15 -15 -15 -16
-24 -24 -24 -24 -24 -23 -23 -23 -23 -23 -22 -22 -22 -22 -21 -21 -21 -20 -21 -20 -20 -20 -20 -21 -21 -21 -21 -20 -19 -19 -18 -20 -20 -20 -19 -19 -19 -19 -18 -17 -17 -17 -16 -16 -16
Height
5735 5740 5745 5751 5757 5763 5768 5775 5781 5787 5792 5796 5800 5803 5808 5812 5816 5820 5825 5829 5834 5837 5842 5846 5849 5853 5856 5858 5860 5863 5865 5866 5868 5871 5870 5872 5873 5874 5876 5877 5877 5877 5877 5876 5876
5730 5736 5741 5746 5754 5759 5766 5772 5778 5783 5788 5793 5798 5801 5805 5810 5814 5818 5823 5825 5831 5834 5839 5844 5847 5851 5854 5856 5859 5861 5863 5864 5868 5870 5870 5871 5873 5874 5876 5876 5877 5877 5877 5876 5876
5725 5731 5737 5743 5749 5755 5761 5768 5774 5779 5785 5790 5794 5798 5803 5808 5812 5816 5820 5823 5828 5831 5836 5840 5844 5847 5851 5854 5857 5859 5861 5862 5865 5866 5869 5870 5872 5872 5874 5875 5876 5876 5876 5876 5876
5720 5726 5732 5738 5744 5750 5756 5763 5769 5775 5779 5785 5790 5795 5800 5805 5810 5813 5817 5821 5825 5828 5832 5836 5840 5844 5847 5850 5853 5856 5856 5859 5862 5862 5865 5868 5869 5871 5872 5874 5875 5875 5875 5875 5875
5713 5719 5726 5732 5739 5745 5751 5758 5764 5769 5775 5780 5786 5792 5796 5802 5805 5809 5813 5817 5821 5825 5829 5833 5836 5840 5843 5845 5850 5851 5854 5856 5858 5859 5862 5864 5867 5869 5869 5871 5872 5874 5874 5874 5874
5706 5712 5719 5725 5732 5740 5746 5753 5758 5764 5770 5776 5781 5786 5792 5797 5800 5804 5809 5813 5817 5821 5825 5829 5833 5837 5839 5842 5845 5848 5850 5851 5854 5856 5858 5860 5863 5867 5864 5867 5870 5870 5872 5873 5873
5699 5703 5710 5717 5725 5732 5740 5746 5753 5759 5764 5770 5776 5781 5786 5791 5795 5800 5804 5809 5813 5816 5820 5824 5828 5832 5835 5838 5840 5843 5845 5847 5850 5851 5854 5855 5860 5863 5862 5865 5866 5867 5868 5871 5871
5693 5697 5703 5710 5716 5724 5732 5739 5745 5751 5757 5763 5770 5773 5780 5785 5790 5795 5799 5804 5808 5812 5815 5820 5823 5826 5830 5833 5835 5838 5840 5843 5845 5846 5848 5851 5857 5856 5858 5861 5862 5864 5865 5866 5868
5685 5691 5696 5702 5708 5716 5723 5731 5738 5743 5749 5756 5762 5768 5774 5780 5785 5790 5795 5799 5802 5806 5810 5814 5818 5821 5824 5828 5830 5833 5836 5836 5838 5840 5843 5846 5852 5852 5853 5855 5858 5860 5861 5863 5864
5677 5684 5689 5694 5700 5707 5714 5721 5728 5735 5742 5748 5755 5763 5769 5774 5778 5783 5788 5792 5797 5801 5805 5808 5812 5815 5818 5823 5827 5828 5828 5830 5833 5836 5837 5840 5846 5847 5849 5851 5854 5856 5857 5858 5860
5670 5676 5682 5688 5694 5700 5707 5713 5721 5727 5734 5741 5748 5754 5760 5765 5771 5776 5781 5786 5791 5796 5799 5803 5807 5811 5813 5816 5818 5820 5823 5825 5826 5831 5832 5834 5839 5841 5844 5847 5849 5851 5852 5853 5855
5661 5669 5675 5681 5686 5693 5700 5705 5711 5718 5723 5730 5738 5745 5751 5757 5763 5768 5774 5779 5784 5789 5792 5797 5801 5803 5805 5809 5812 5814 5817 5820 5821 5823 5826 5828 5831 5835 5838 5842 5844 5846 5848 5848 5849
5653 5660 5668 5673 5678 5685 5690 5697 5703 5709 5714 5720 5727 5735 5742 5749 5754 5761 5766 5771 5776 5780 5785 5789 5793 5795 5798 5802 5805 5808 5810 5813 5816 5816 5819 5822 5824 5830 5833 5836 5838 5840 5841 5842 5842
5645 5652 5659 5666 5673 5677 5684 5690 5696 5702 5705 5713 5718 5725 5733 5740 5746 5751 5755 5762 5767 5772 5775 5780 5783 5787 5791 5795 5797 5801 5803 5805 5807 5811 5812 5816 5813 5825 5828 5829 5832 5834 5834 5834 5835
5637 5642 5650 5659 5665 5670 5678 5684 5689 5693 5697 5705 5710 5718 5723 5729 5739 5742 5747 5753 5758 5761 5767 5773 5776 5779 5783 5787 5789 5792 5794 5797 5799 5802 5805 5809 5807 5817 5822 5823 5825 5826 5826 5829 5829
5627 5634 5641 5650 5657 5663 5671 5677 5682 5686 5686 5696 5702 5708 5713 5719 5726 5731 5736 5742 5746 5750 5755 5760 5765 5769 5773 5777 5780 5784 5785 5787 5790 5794 5797 5801 5805 5800 5814 5815 5817 5819 5820 5820 5820
5620 5627 5635 5640 5648 5654 5663 5668 5671 5670 5681 5687 5694 5700 5705 5710 5715 5720 5727 5731 5736 5741 5745 5751 5755 5760 5764 5767 5770 5773 5775 5777 5782 5784 5789 5791 5796 5797 5796 5806 5807 5809 5809 5810 5811
5611 5620 5626 5631 5639 5644 5651 5657 5659 5664 5672 5679 5686 5691 5696 5702 5706 5710 5715 5720 5724 5729 5734 5737 5743 5747 5754 5757 5760 5762 5765 5768 5769 5772 5778 5780 5785 5791 5788 5791 5796 5798 5796 5797 5800
5600 5609 5616 5621 5627 5635 5641 5643 5651 5656 5664 5671 5675 5681 5686 5692 5698 5702 5707 5712 5716 5720 5725 5728 5732 5738 5742 5746 5748 5751 5754 5759 5757 5761 5763 5769 5779 5781 5782 5778 5778 5782 5784 5785 5785
5589 5597 5604 5609 5615 5622 5627 5634 5642 5650 5655 5659 5665 5670 5676 5682 5687 5691 5694 5700 5705 5710 5714 5717 5721 5726 5731 5733 5736 5739 5745 5744 5746 5748 5750 5757 5764 5773 5771 5772 5769 5769 5766 5767 5769
5576 5583 5591 5597 5604 5609 5617 5626 5634 5639 5645 5650 5655 5660 5667 5672 5678 5681 5684 5690 5695 5701 5703 5707 5711 5717 5720 5723 5727 5730 5731 5733 5736 5738 5739 5745 5752 5759 5759 5759 5758 5755 5754 5753 5751
5566 5571 5578 5585 5592 5600 5609 5616 5621 5629 5635 5640 5646 5651 5656 5662 5667 5670 5674 5680 5686 5689 5692 5696 5700 5704 5709 5711 5714 5715 5718 5720 5722 5727 5729 5733 5740 5748 5746 5744 5743 5742 5741 5740 5739
5555 5561 5567 5573 5580 5590 5597 5604 5610 5616 5624 5631 5635 5640 5645 5651 5657 5659 5662 5670 5674 5678 5681 5685 5688 5694 5696 5700 5702 5703 5706 5708 5711 5712 5719 5716 5735 5740 5731 5733 5732 5732 5728 5728 5726
5546 5551 5557 5562 5569 5578 5584 5591 5597 5606 5610 5617 5623 5628 5634 5640 5642 5645 5649 5656 5661 5665 5669 5673 5678 5683 5686 5686 5688 5691 5693 5695 5698 5700 5704 5705 5715 5728 5721 5721 5721 5717 5715 5713 5711
5535 5541 5547 5553 5559 5566 5571 5579 5586 5592 5597 5603 5609 5616 5621 5624 5629 5632 5637 5643 5647 5652 5656 5659 5664 5668 5671 5672 5673 5676 5680 5682 5684 5689 5683 5699 5690 5715 5709 5706 5701 5700 5703 5700 5699
5526 5531 5538 5544 5549 5554 5559 5569 5575 5579 5585 5591 5596 5601 5605 5611 5615 5620 5623 5629 5634 5638 5642 5645 5650 5654 5656 5657 5659 5660 5669 5669 5669 5671 5668 5672 5672 5691 5693 5691 5685 5688 5689 5688 5687
5514 5521 5525 5531 5537 5544 5552 5559 5564 5568 5573 5579 5582 5584 5590 5598 5601 5606 5609 5614 5617 5623 5629 5634 5636 5638 5641 5644 5642 5647 5661 5656 5657 5659 5656 5655 5663 5669 5671 5673 5671 5671 5671 5671 5670
Wind_Speed
38 41 44 36 44 35 30 30 33 26 29 24 27 27 27 30 32 33 34 32 31 29 28 25 23 20 18 17 15 12 10 10 8 7 5 4 2 2 2 2 2 2 3 3 3
41 41 42 42 41 40 38 37 35 31 29 28 28 26 27 28 30 32 33 32 31 29 28 27 25 23 20 19 16 14 13 13 8 8 10 8 6 5 3 5 3 3 1 5 3
40 39 42 43 43 44 43 39 36 39 37 34 30 28 28 28 29 31 31 30 31 29 28 28 27 25 23 21 20 16 18 15 12 12 11 11 8 8 7 5 6 5 4 4 3
41 43 42 44 44 44 47 44 42 37 34 33 32 32 31 30 29 28 28 29 29 29 28 29 28 26 25 24 23 20 24 19 17 17 14 14 14 11 11 8 8 6 7 4 4
38 43 43 46 46 46 45 50 44 40 38 36 35 33 31 30 29 28 28 28 28 28 28 29 28 28 27 27 24 24 25 23 22 22 19 18 18 13 15 13 9 9 8 7 6
33 43 49 46 47 48 48 49 51 43 42 41 38 36 33 30 28 27 28 28 28 28 28 28 28 27 28 26 24 24 25 27 27 25 23 21 21 15 22 16 9 12 7 8 9
35 41 51 47 48 49 49 53 52 52 48 45 42 39 35 32 30 28 28 28 28 28 27 28 29 28 28 27 26 25 26 27 26 27 25 26 23 20 24 19 15 13 11 9 12
34 32 41 50 47 48 50 52 54 50 48 46 43 39 38 35 32 30 29 28 29 29 29 30 30 29 28 28 28 29 27 27 27 29 28 29 23 25 26 22 20 16 14 12 11
39 36 34 52 49 49 50 51 52 51 50 48 46 44 43 39 36 34 31 31 30 30 31 31 31 30 28 30 30 29 27 29 30 30 28 30 26 28 27 25 22 19 16 16 14
40 38 37 37 53 48 51 51 52 52 51 49 48 47 45 42 40 37 33 32 31 31 33 33 33 31 31 30 28 30 31 31 31 30 30 30 27 29 28 27 25 21 19 19 18
45 40 36 35 49 44 47 50 52 53 52 50 48 47 46 45 42 39 36 35 33 33 33 34 34 32 31 31 32 32 32 30 32 29 30 29 29 29 30 28 26 23 22 21 20
49 43 41 36 39 48 50 44 50 50 51 52 51 49 49 48 45 44 41 39 37 36 35 35 35 34 35 34 32 33 32 32 33 32 31 31 29 29 29 28 26 25 24 23 24
54 46 42 40 38 39 43 56 46 50 51 52 52 52 51 50 48 47 44 43 42 40 39 37 36 35 36 36 35 34 34 35 34 35 33 31 31 28 27 27 26 26 26 26 28
41 49 50 45 42 42 45 47 44 45 50 52 50 52 52 53 52 50 49 48 46 43 43 41 39 38 37 35 36 36 37 36 37 36 37 35 36 29 28 29 27 27 28 29 30
44 48 51 52 43 47 49 47 45 43 47 46 50 50 51 54 51 51 51 50 48 47 46 43 42 41 39 38 39 38 39 40 39 39 39 38 40 28 28 30 28 29 30 28 31
42 39 49 48 51 47 43 50 52 51 57 50 47 47 46 48 50 49 51 52 50 49 50 48 46 45 44 43 42 41 41 43 43 42 42 41 40 42 30 31 31 31 32 33 35
43 41 40 40 37 46 47 47 48 49 46 46 46 47 44 44 46 46 46 48 48 49 51 50 49 47 47 47 46 45 45 45 45 46 44 45 43 44 44 36 36 35 35 37 39
46 47 46 43 36 37 42 41 42 45 50 46 45 43 42 45 46 46 44 44 48 48 47 47 49 48 47 48 46 45 46 48 49 50 49 49 48 44 47 45 41 41 44 44 42
50 49 57 52 47 49 44 40 41 46 48 44 47 44 45 44 49 48 47 46 44 43 44 45 45 45 46 46 47 48 51 47 49 52 54 55 50 50 48 50 50 48 47 46 48
54 51 53 52 51 51 54 47 37 37 39 44 45 45 44 41 41 45 43 46 48 48 48 50 51 50 48 47 47 48 46 48 50 53 55 56 55 50 51 49 51 50 53 53 51
53 53 51 52 50 53 55 53 47 41 45 47 46 44 44 41 43 46 45 42 40 44 45 43 46 48 47 47 43 43 44 47 49 50 52 52 52 51 51 52 53 55 55 56 56
51 52 53 55 54 52 52 53 50 50 49 51 49 48 47 43 47 43 43 43 40 40 43 42 40 41 40 41 40 42 43 44 45 46 49 52 54 50 48 50 51 53 54 55 56
46 50 50 53 55 54 53 51 56 59 60 55 55 55 54 48 49 55 56 50 47 47 49 47 47 46 46 46 47 46 48 48 49 51 49 52 38 37 46 47 49 51 56 57 58
45 47 47 50 52 53 54 55 55 57 62 66 65 62 56 54 52 54 58 55 54 52 51 53 53 55 54 55 55 54 53 54 54 56 56 56 51 43 49 50 49 51 53 57 59
42 44 43 46 47 47 49 51 53 55 57 60 63 63 61 58 57 55 56 55 52 54 55 55 59 62 61 60 61 60 59 58 58 58 62 59 60 46 51 53 55 55 54 55 56
46 44 43 43 44 45 47 48 46 47 50 54 58 60 68 70 64 63 63 64 62 61 61 62 59 55 55 55 55 58 59 59 58 60 61 64 66 60 60 61 62 63 63 62 60
53 50 49 47 44 43 42 41 40 41 44 46 49 55 59 65 68 71 68 70 70 67 65 61 59 61 63 62 62 61 63 61 62 60 59 58 54 58 64 65 67 68 68 69 70
Wind_Direction
205 201 201 201 189 194 195 194 192 196 193 192 190 188 188 189 190 188 190 189 190 189 189 192 193 193 197 198 202 200 207 210 198 213 189 182 193 240 263 273 323 2 13 1 350
208 205 202 203 205 193 195 199 199 199 199 198 202 195 191 190 190 193 193 193 196 197 198 201 201 203 209 215 218 220 222 229 229 211 224 209 218 243 268 269 276 298 346 322 346
212 213 207 204 202 200 197 203 198 199 199 203 205 203 198 197 193 195 195 196 200 203 205 208 209 210 215 223 229 229 234 237 238 234 225 240 222 247 255 261 252 271 272 289 308
214 211 218 209 206 203 201 202 203 210 205 207 208 206 205 202 201 200 200 200 204 206 209 212 216 219 221 225 231 231 239 241 234 240 237 236 239 236 255 249 246 256 277 250 269
222 214 218 215 210 208 206 207 203 215 211 210 210 209 206 205 206 206 207 208 210 211 215 217 219 222 225 230 232 233 240 243 238 243 240 238 243 239 251 252 250 245 259 258 251
227 212 210 220 214 211 205 207 207 217 212 218 212 211 210 210 211 209 211 213 216 217 219 223 225 225 228 232 233 238 240 240 239 241 241 239 241 237 245 251 245 250 241 254 259
225 225 208 215 220 213 210 207 207 214 218 217 218 213 212 214 217 216 216 219 220 221 222 225 228 229 231 229 231 235 240 240 241 240 241 241 240 232 249 253 249 250 253 239 260
225 222 221 217 220 220 213 212 214 217 218 220 220 219 221 218 219 223 223 225 226 226 226 227 229 230 232 234 232 234 236 241 241 241 238 242 236 235 244 244 253 253 252 258 249
229 228 235 218 220 222 219 216 219 219 219 220 220 221 222 222 222 224 226 229 228 231 231 232 233 232 233 237 236 238 238 241 240 242 242 243 236 239 238 243 246 252 253 250 257
224 228 228 227 221 223 222 219 219 222 222 222 223 223 224 226 226 228 230 232 234 234 235 234 236 236 236 239 243 243 241 242 244 241 242 243 239 240 241 244 246 248 250 249 250
218 224 228 237 218 218 223 224 222 222 225 226 227 227 228 229 230 230 233 234 237 238 238 239 238 241 241 240 241 241 245 244 248 246 245 244 241 240 243 244 245 248 250 250 249
225 225 227 233 229 224 227 226 227 226 224 226 229 230 230 230 232 232 233 235 237 239 240 240 240 241 243 244 244 247 248 246 247 246 245 244 242 240 243 246 246 246 251 252 251
222 220 220 227 229 225 229 224 227 227 227 225 228 231 232 234 233 235 235 236 238 240 241 241 242 243 245 245 247 247 249 250 248 248 249 247 247 242 243 244 247 249 247 250 247
221 220 210 217 226 226 221 227 228 232 229 228 227 229 232 235 235 235 238 238 241 242 243 243 244 244 247 249 250 251 251 251 251 250 252 253 256 240 244 248 248 250 249 246 247
222 221 216 224 213 222 222 223 226 229 228 227 229 228 229 233 236 236 239 241 241 241 244 246 244 247 247 248 248 250 251 252 251 252 252 252 262 251 247 250 251 249 248 250 252
199 210 218 215 218 220 221 222 225 233 233 231 231 233 232 235 234 234 237 238 239 240 242 243 244 245 247 246 249 251 252 252 253 253 254 257 258 266 254 253 250 251 253 250 251
205 202 201 206 214 222 221 220 222 224 226 225 227 230 231 232 235 235 237 239 240 241 242 243 244 243 245 246 246 248 249 252 253 255 257 258 257 265 269 263 261 258 257 253 251
224 213 192 202 199 204 207 205 224 227 227 226 227 228 232 236 237 235 233 235 238 239 237 239 240 242 243 246 248 247 248 250 253 254 254 255 260 261 267 268 265 264 266 264 258
236 229 222 211 209 213 198 198 213 226 228 229 232 234 233 234 235 237 239 238 237 240 240 241 242 244 246 244 244 247 249 251 253 255 256 256 257 261 264 270 271 272 269 267 267
229 229 227 223 222 227 220 213 214 215 223 224 227 230 235 235 231 230 231 231 232 234 237 241 241 240 241 243 246 249 249 249 250 254 256 259 259 258 264 265 268 271 271 270 269
228 227 231 227 228 229 230 223 221 219 225 230 231 229 236 241 235 231 233 235 234 235 238 241 243 244 244 244 247 250 253 255 257 257 260 261 258 259 259 262 263 266 269 272 275
226 228 227 230 230 230 229 236 234 226 225 226 232 237 235 241 239 235 236 238 239 239 236 235 238 239 238 239 246 253 255 257 257 259 260 262 257 256 264 268 265 266 271 275 279
226 227 227 230 229 229 230 228 225 227 223 225 235 238 245 242 239 239 242 243 243 242 243 238 235 238 240 245 251 254 258 260 260 261 263 261 263 259 262 265 268 269 270 271 272
225 227 228 230 230 229 229 228 229 227 229 228 233 239 242 235 230 234 243 242 239 242 245 249 249 244 247 252 252 254 258 260 261 262 265 267 265 255 264 268 268 266 266 266 266
225 228 227 229 231 232 232 230 229 230 231 233 233 235 228 227 229 232 236 238 239 243 248 251 251 252 253 255 257 258 258 258 260 264 264 267 264 259 261 261 262 263 263 265 267
228 229 229 231 230 234 233 233 233 233 232 233 234 234 233 235 239 238 239 241 244 249 252 255 251 249 256 258 254 255 259 263 266 270 269 267 265 265 262 262 263 264 265 266 267
230 229 230 230 232 234 236 235 238 238 237 236 235 237 237 238 242 244 249 250 252 254 254 253 252 252 251 246 245 245 258 257 259 256 254 254 261 268 268 267 267 265 265 264 264